STARLINK-1676, 46556

Orbit data source: Space-Track

STARLINK-1676, 46556 is a payload satellite owned by SpaceX/Seattle (US) in LEO that was launched on Tue, 06 Oct 2020 UTC via an FALCON 9 launch vehicle from the Air Force Eastern Test Range (AFETR). Payloads include a variety of satellites, spacecraft, and rockets equipped with specific instruments for various scientific and technological missions. These include communications satellites like Starlink; space stations such as the ISS; scientific satellites like the Hubble; Earth observation satellites from companies like Planet Labs, Umbra, and HawkEye 360; GPS; miniature CubeSats for education and research; and military/defense satellites.

Loading next visibility...
STARLINK-1676 details
Identifier
46556, 2020-070AA
Orbit
LEO
Last TLE update16 hours ago
Origin
Flag of USSpaceX/Seattle (US)
ManufacturerSpaceX/Seattle
MissionOperational Commercial Communications
Bus & MotorSTARLINK, Unknown motor
Mass260 kg wet, ~248 kg dry
Launch date (UTC)
2020-10-06 (4 years ago)
Launch vehicle
FALCON 9
Launch site
Air Force Eastern Test Range (AFETR)
Object type
Payload
Rocket body
Debris
Shape & HBRBox + 1 Pan, 8.86 m
Radar Cross Section13.562 m², Large (>1 m²)

Expand to show TLE details & history

TLE from 16 hours ago
0 STARLINK-1676
1 46556U 20070AA  24336.71134926 -.00001198  00000-0 -61555-4 0  9993
2 46556  53.0532  95.0084 0001335  96.6048 263.5093 15.06379852229723
Epoch: 2024-12-01T17:04Z
Definitive object data (Epoch: 2024-12-01T17:04:20.576Z)
Latitude
Longitude127.87703°
Altitude548.257 km
Speed7.589 km/s
True Right ascension06h 20m 02s
True Declination0° 00' 00"
Sunlit
Object was in full shadow at TLE epoch
Visualization TLE readout
Latitude-43.84271°
Longitude79.02763°
Altitude562.886 km
Speed7.579 km/s
Apparent Right ascension22h 52m 54s
Apparent Declination-64° 06' 43"
Sunlit
Object is in daylight
Visualization observer readout
Local Sidereal Time06:30:08
Azimuth214.698° SW
Elevation-45.654°
Doppler factor1
Orbital elements
Apogee altitude548.469 km
Perigee altitude546.62 km
Semi-major axis6,925.681 km
Eccentricity0.0001335
Inclination53.0532°
RAAN95.0084°
Arg. of periapsis96.6048°
True anomaly263.4941°
Mean anomaly263.5093°
Eccentric anomaly263.5017°
Mean motion3.76573 °/min
BSTAR-0.000061555
Orbital period95.6 mins
Loading maneuver chart data...
Loading historical data...
Loading historical data...
Loading historical data...
Loading historical data...
Loading historical data...
Loading historical data...
Loading historical data...

STARLINK-1676 Visibility forecast

Observer location: undefined°, undefined

Span
Click to sort rows by Start time (UTC) header in descending order
Start Az.
Max El. time (UTC)
Max El. Az.
Max El.
End time (UTC)
End Az.
7 mins2024-12-02 10:45:52.011Z224.355° SW2024-12-02 10:48:52.011Z192.877° SSW43.778°2024-12-02 10:52:52.011Z52.465° ENE
5 mins2024-12-02 12:26:52.011Z295.374° NW2024-12-02 12:28:52.011Z332.12° NNW20.84°2024-12-02 12:31:52.011Z25.358° NE
4 mins2024-12-02 15:48:52.011Z347.013° N2024-12-02 15:50:52.011Z24.13° NE18.595°2024-12-02 15:52:52.011Z58.671° ENE
6 mins2024-12-02 17:27:52.011Z313.568° NW2024-12-02 17:30:52.011Z67.732° E44.254°2024-12-02 17:33:52.011Z125.025° SE
|